McAlester, OK

6:24 PM CST on December 07, 2019 (GMT -0600)
McAlester Regional

Weather History for KMLC - November, 2019

Change the Weather History Date:

Friday, November 15, 2019

  Actual Average Record
Temperature  
Mean Temperature 41 °F -  
Max Temperature 57 °F 62 °F 85 °F (1955)
Min Temperature 25 °F 40 °F 19 °F (2018)
Degree Days  
Heating Degree Days 24    
Moisture  
Dew Point 28 °F    
Average Humidity 68    
Maximum Humidity 92    
Minimum Humidity 31    
Precipitation  
Precipitation 0.00 in - - ()
Sea Level Pressure  
Sea Level Pressure 30.37 in    
Wind  
Wind Speed 1 mph ()    
Max Wind Speed 6 mph    
Max Gust Speed -    
Visibility 10.0 miles    
Events      
Averages and records for this station are not official NWS values.
T = Trace of Precipitation, MM = Missing Value Source: Averaged Metar Reports

Daily Weather History Graph

Daily Weather History Graph

Search for Another Location

Airport or City:

Astronomy

Nov. 15, 2019 Rise Set
Actual Time 6:57 AM CST 5:17 PM CST
Civil Twilight 6:30 AM CST 5:44 PM CST
Nautical Twilight 5:59 AM CST 6:15 PM CST
Astronomical Twilight 5:29 AM CST 6:45 PM CST
Moon 7:58 PM CST (11/15) 9:50 AM CST (11/15)
Length of Visible Light 11h 14m
Length of Day
10h 20m
Waning Gibbous, 90% of the Moon is Illuminated
Nov 15
Waning Gibbous
Nov 19
Last Quarter
Nov 26
New
Dec 4
First Quarter
Dec 11
Full

Hourly Weather History & Observations

Time (CST) Temp. Dew Point Humidity Pressure Visibility Wind Dir Wind Speed Gust Speed Precip Events Conditions
1:53 AM 28.0 °F 25.0 °F 88% 30.41 in 10.0 mi Calm Calm - N/A   Clear
2:53 AM 27.0 °F 24.1 °F 89% 30.41 in 10.0 mi Calm Calm - N/A   Clear
3:53 AM 27.0 °F 24.1 °F 89% 30.42 in 10.0 mi Calm Calm - N/A   Clear
4:53 AM 26.1 °F 23.0 °F 88% 30.44 in 10.0 mi Calm Calm - N/A   Clear
5:53 AM 25.0 °F 23.0 °F 92% 30.43 in 10.0 mi Calm Calm - N/A   Partly Cloudy
6:53 AM 25.0 °F 23.0 °F 92% 30.43 in 9.0 mi Calm Calm - N/A   Scattered Clouds
7:53 AM 28.0 °F 26.1 °F 92% 30.45 in 10.0 mi Calm Calm - N/A   Partly Cloudy
8:53 AM 37.9 °F 33.1 °F 83% 30.46 in 10.0 mi Calm Calm - N/A   Clear
9:53 AM 46.0 °F 34.0 °F 63% 30.45 in 10.0 mi Calm Calm - N/A   Partly Cloudy
10:53 AM 50.0 °F 28.0 °F 43% 30.44 in 10.0 mi Variable 4.6 mph - N/A   Clear
11:53 AM 53.1 °F 28.9 °F 40% 30.42 in 10.0 mi Variable 5.8 mph - N/A   Clear
12:53 PM 55.0 °F 28.0 °F 35% 30.39 in 10.0 mi North 4.6 mph - N/A   Clear
1:53 PM 57.0 °F 28.0 °F 33% 30.35 in 10.0 mi NNW 3.5 mph - N/A   Clear
2:53 PM 57.9 °F 27.0 °F 31% 30.33 in 10.0 mi North 4.6 mph - N/A   Scattered Clouds
3:53 PM 57.0 °F 28.0 °F 33% 30.31 in 10.0 mi Calm Calm - N/A   Scattered Clouds
4:53 PM 55.0 °F 28.9 °F 37% 30.31 in 10.0 mi Calm Calm - N/A   Scattered Clouds
5:53 PM 43.0 °F 30.0 °F 60% 30.32 in 10.0 mi Calm Calm - N/A   Partly Cloudy
6:53 PM 37.9 °F 30.0 °F 73% 30.31 in 10.0 mi Calm Calm - N/A   Partly Cloudy
7:53 PM 34.0 °F 28.9 °F 82% 30.32 in 10.0 mi Calm Calm - N/A   Clear
8:53 PM 33.1 °F 28.0 °F 82% 30.31 in 10.0 mi Calm Calm - N/A   Scattered Clouds
9:53 PM 33.1 °F 28.0 °F 82% 30.30 in 10.0 mi Calm Calm - N/A   Clear
10:53 PM 32.0 °F 28.0 °F 85% 30.30 in 10.0 mi Calm Calm - N/A   Clear
11:53 PM 35.1 °F 28.9 °F 78% 30.30 in 10.0 mi Calm Calm - N/A   Clear